User: anonymous   Login
Location: Dompnac
(44.5644°N, 4.1026°E)
Time: 03:38:39
(UTC+00:00)
Language:

Cosmos 2279 Rocket - Orbit

View from above orbital plane
View from above orbital plane
View from above satellite
View from above satellite

Ground track
Ground track

The orbit data is extracted from the following two-line orbital elements,

1 23093U 94024B   20332.91526025 +.00000009 +00000-0 -66482-5 0  9997
2 23093 082.9471 257.4146 0011564 074.6038 285.6397 13.77835036804650
Epoch (UTC): 27 November 2020 21:57:58
Eccentricity: 0.0011564
inclination: 82.9471°
perigee height: 963 km
apogee height: 980 km
right ascension of ascending node: 257.4146°
argument of perigee: 74.6038°
revolutions per day: 13.77835036
mean anomaly at epoch: 285.6397°
orbit number at epoch: 80465

The dashed part of the orbit path shows where the satellite is in the earth's shadow,  

DLR